Weather History for Jonesville, VA

Change the Weather History Date:

Monday, September 1, 2014

  Actual Average (KLOZ) Record (KLOZ)
Temperature  
Mean Temperature 76 °F 73 °F  
Max Temperature 87 °F 84 °F 95 °F (1957)
Min Temperature 66 °F 62 °F 48 °F (1963)
Degree Days  
Heating Degree Days 0 0  
Month to date heating degree days 0  
Since 1 July heating degree days 1  
Cooling Degree Days 12 8  
Month to date cooling degree days 8  
Growing Degree Days 26 (Base 50)    
Moisture  
Dew Point 69 °F    
Average Humidity 83    
Maximum Humidity 100    
Minimum Humidity 51    
Precipitation  
Precipitation 0.00 in 0.10 in 1.41 in (1982)
Month to date precipitation 0.10  
Sea Level Pressure  
Sea Level Pressure 30.14 in    
Wind  
Wind Speed 2 mph (SW)    
Max Wind Speed 14 mph    
Max Gust Speed 18 mph    
Visibility 8 miles    
Events Fog    
T = Trace of Precipitation, MM = Missing Value Source: NWS Daily Summary

Daily Weather History Graph

Daily Weather History Graph

Search for Another Location

Airport:

Trip Planner

Search our weather history database for the weather conditions in past years. The results will help you decide how hot, cold, wet, or windy it might be!

Date:

Astronomy

Sep. 01, 2014 Rise Set
Actual Time 7:04 AM EDT 8:01 PM EDT
Civil Twilight 6:37 AM EDT 8:27 PM EDT
Nautical Twilight 6:06 AM EDT 8:58 PM EDT
Astronomical Twilight 5:33 AM EDT 9:31 PM EDT
Moon 1:38 PM EDT (9/1) No Moon Set
Length of Visible Light 13h 49m
Length of Day
12h 57m
Waxing Crescent, 42% of the Moon is Illuminated
Sep 1
Waxing Crescent
Sep 2
First Quarter
Sep 8
Full
Sep 15
Last Quarter
Sep 24
New

Hourly Weather History & Observations

Time (EDT) Temp. Heat Index Dew Point Humidity Pressure Visibility Wind Dir Wind Speed Gust Speed Precip Events Conditions
12:15 AM 69.8 °F - 69.8 °F 100% 30.15 in 10.0 mi Calm Calm - N/A   Unknown
12:35 AM 68.0 °F - 68.0 °F 100% 30.14 in 8.0 mi Calm Calm - N/A   Unknown
1:15 AM 68.0 °F - 68.0 °F 100% 30.14 in 7.0 mi Calm Calm - N/A   Unknown
1:35 AM 68.0 °F - 68.0 °F 100% 30.14 in 5.0 mi Calm Calm - N/A   Mist
1:55 AM 68.0 °F - 68.0 °F 100% 30.14 in 7.0 mi Calm Calm - N/A   Unknown
2:15 AM 68.0 °F - 68.0 °F 100% 30.14 in 9.0 mi Calm Calm - N/A   Unknown
2:35 AM 68.0 °F - 68.0 °F 100% 30.15 in 7.0 mi Calm Calm - N/A   Unknown
2:55 AM 66.2 °F - 66.2 °F 100% 30.15 in 0.8 mi Calm Calm - N/A   Mist
3:15 AM 66.2 °F - 66.2 °F 100% 30.15 in 1.5 mi Calm Calm - N/A   Mist
3:35 AM 66.2 °F - 66.2 °F 100% 30.16 in 0.5 mi Calm Calm - N/A Fog Fog
3:55 AM 66.2 °F - 66.2 °F 100% 30.16 in 3.0 mi Calm Calm - N/A   Mist
4:15 AM 66.2 °F - 66.2 °F 100% 30.16 in 9.0 mi Calm Calm - N/A   Unknown
4:35 AM 66.2 °F - 66.2 °F 100% 30.16 in 9.0 mi Calm Calm - N/A   Unknown
4:55 AM 66.2 °F - 66.2 °F 100% 30.16 in 8.0 mi Calm Calm - N/A   Unknown
5:15 AM 66.2 °F - 66.2 °F 100% 30.16 in 2.5 mi Calm Calm - N/A   Mist
5:35 AM 66.2 °F - 66.2 °F 100% 30.16 in 0.5 mi Calm Calm - N/A Fog Fog
5:55 AM 66.2 °F - 66.2 °F 100% 30.16 in 0.2 mi Calm Calm - N/A Fog Fog
6:35 AM 66.2 °F - 66.2 °F 100% 30.17 in 0.2 mi Calm Calm - N/A Fog Fog
7:15 AM 66.2 °F - 66.2 °F 100% 30.18 in 0.2 mi Calm Calm - N/A Fog Fog
7:35 AM 66.2 °F - 66.2 °F 100% 30.18 in 1.2 mi Calm Calm - N/A   Mist
7:55 AM 66.2 °F - 66.2 °F 100% 30.18 in 2.0 mi Calm Calm - N/A   Mist
8:15 AM 66.2 °F - 66.2 °F 100% 30.18 in 8.0 mi Calm Calm - N/A   Unknown
8:35 AM 66.2 °F - 66.2 °F 100% 30.18 in 9.0 mi Calm Calm - N/A   Unknown
8:55 AM 68.0 °F - 68.0 °F 100% 30.18 in 8.0 mi Calm Calm - N/A   Unknown
9:15 AM 68.0 °F - 68.0 °F 100% 30.18 in 5.0 mi Calm Calm - N/A   Mist
9:35 AM 71.6 °F - 71.6 °F 100% 30.18 in 10.0 mi Calm Calm - N/A   Unknown
9:55 AM 73.4 °F - 71.6 °F 94% 30.18 in 10.0 mi Calm Calm - N/A   Unknown
10:15 AM 75.2 °F - 71.6 °F 89% 30.18 in 10.0 mi Calm Calm - N/A   Unknown
10:35 AM 75.2 °F - 69.8 °F 83% 30.18 in 10.0 mi Calm Calm - N/A   Unknown
10:55 AM 77.0 °F - 71.6 °F 83% 30.18 in 10.0 mi Calm Calm - N/A   Unknown
11:15 AM 77.0 °F - 71.6 °F 83% 30.18 in 10.0 mi SW 5.8 mph - N/A   Unknown
11:35 AM 80.6 °F 83.9 °F 69.8 °F 70% 30.18 in 10.0 mi Calm Calm - N/A   Unknown
11:55 AM 82.4 °F 85.4 °F 68.0 °F 62% 30.18 in 10.0 mi SW 6.9 mph - N/A   Unknown
12:15 PM 82.4 °F 85.4 °F 68.0 °F 62% 30.17 in 10.0 mi SW 4.6 mph - N/A   Unknown
12:35 PM 82.4 °F 85.4 °F 68.0 °F 62% 30.17 in 10.0 mi SW 9.2 mph - N/A   Unknown
1:15 PM 84.2 °F 87.3 °F 68.0 °F 58% 30.16 in 10.0 mi WSW 9.2 mph - N/A   Unknown
1:35 PM 84.2 °F 87.3 °F 68.0 °F 58% 30.15 in 10.0 mi West 8.1 mph - N/A   Unknown
1:55 PM 84.2 °F 87.3 °F 68.0 °F 58% 30.15 in 10.0 mi SSW 6.9 mph - N/A   Unknown
2:15 PM 86.0 °F 89.4 °F 68.0 °F 55% 30.14 in 10.0 mi SW 8.1 mph - N/A   Unknown
2:35 PM 86.0 °F 89.4 °F 68.0 °F 55% 30.13 in 10.0 mi SSW 10.4 mph - N/A   Unknown
2:55 PM 86.0 °F 89.4 °F 68.0 °F 55% 30.12 in 10.0 mi SSW 12.7 mph 16.1 mph N/A   Unknown
3:15 PM 86.0 °F 89.4 °F 68.0 °F 55% 30.11 in 10.0 mi SSW 9.2 mph - N/A   Unknown
3:35 PM 87.8 °F 91.4 °F 68.0 °F 52% 30.11 in 10.0 mi SSW 10.4 mph 16.1 mph N/A   Unknown
3:55 PM 86.0 °F 89.4 °F 68.0 °F 55% 30.10 in 10.0 mi SSW 12.7 mph - N/A   Unknown
4:15 PM 87.8 °F 91.4 °F 68.0 °F 52% 30.10 in 10.0 mi SSW 13.8 mph 18.4 mph N/A   Unknown
4:35 PM 86.0 °F 89.4 °F 68.0 °F 55% 30.10 in 10.0 mi SSW 10.4 mph - N/A   Unknown
4:55 PM 86.0 °F 88.2 °F 66.2 °F 51% 30.10 in 10.0 mi West 6.9 mph - N/A   Unknown
5:15 PM 86.0 °F 89.4 °F 68.0 °F 55% 30.09 in 10.0 mi SW 5.8 mph - N/A   Unknown
5:35 PM 86.0 °F 89.4 °F 68.0 °F 55% 30.09 in 10.0 mi Calm Calm - N/A   Unknown
5:55 PM 86.0 °F 89.4 °F 68.0 °F 55% 30.09 in 10.0 mi WSW 6.9 mph - N/A   Unknown
6:15 PM 86.0 °F 90.4 °F 69.8 °F 58% 30.09 in 10.0 mi Calm Calm - N/A   Unknown
6:35 PM 86.0 °F 89.4 °F 68.0 °F 55% 30.08 in 10.0 mi SW 6.9 mph - N/A   Unknown
7:15 PM 84.2 °F 87.3 °F 68.0 °F 58% 30.08 in 10.0 mi Calm Calm - N/A   Unknown
7:35 PM 82.4 °F 86.3 °F 69.8 °F 66% 30.08 in 10.0 mi Calm Calm - N/A   Unknown
7:55 PM 82.4 °F 86.3 °F 69.8 °F 66% 30.09 in 10.0 mi Calm Calm - N/A   Unknown
8:15 PM 78.8 °F - 71.6 °F 78% 30.09 in 10.0 mi Calm Calm - N/A   Unknown
8:35 PM 75.2 °F - 71.6 °F 89% 30.09 in 10.0 mi Calm Calm - N/A   Unknown
8:55 PM 73.4 °F - 71.6 °F 94% 30.10 in 10.0 mi Calm Calm - N/A   Unknown
9:15 PM 73.4 °F - 71.6 °F 94% 30.11 in 10.0 mi Calm Calm - N/A   Unknown
9:35 PM 73.4 °F - 71.6 °F 94% 30.11 in 10.0 mi Calm Calm - N/A   Unknown
9:55 PM 71.6 °F - 71.6 °F 100% 30.12 in 10.0 mi Calm Calm - N/A   Unknown
10:15 PM 73.4 °F - 71.6 °F 94% 30.13 in 10.0 mi Calm Calm - N/A   Unknown
10:35 PM 73.4 °F - 71.6 °F 94% 30.13 in 10.0 mi Calm Calm - N/A   Unknown
10:55 PM 71.6 °F - 71.6 °F 100% 30.13 in 10.0 mi Calm Calm - N/A   Unknown
11:15 PM 71.6 °F - 71.6 °F 100% 30.13 in 9.0 mi Calm Calm - N/A   Unknown
11:35 PM 71.6 °F - 71.6 °F 100% 30.13 in 10.0 mi Calm Calm - N/A   Unknown
11:55 PM 69.8 °F - 69.8 °F 100% 30.13 in 9.0 mi Calm Calm - N/A   Unknown